User: anonymous   Login
Location: Iola
(37.9240°N, 95.4000°W)
Time: 17:31:59
(UTC-05:00)
Language:

Meteor 2-10 Rocket - Orbit

View from above orbital plane
View from above orbital plane
View from above satellite
View from above satellite

Ground track
Ground track

The orbit data is extracted from the following two-line orbital elements,

1 14453U 83109B   17085.93599136 +.00000044 +00000-0 +13226-4 0  9990
2 14453 081.1692 189.0458 0103999 301.9006 057.2087 14.24669542735749
Epoch (UTC): 26 March 2017 22:27:49
Eccentricity: 0.0103999
inclination: 81.1692°
perigee height: 735 km
apogee height: 884 km
right ascension of ascending node: 189.0458°
argument of perigee: 301.9006°
revolutions per day: 14.24669542
mean anomaly at epoch: 57.2087°
orbit number at epoch: 73574

The dashed part of the orbit path shows where the satellite is in the earth's shadow,  

DLR